Location: ?????????
(41.2393°N, 22.9479°E)
Time: 22:49:34
(UTC+00:00)

ARIANE 5 R/B - Pass Details

Date: 17 November 2025
Orbit: 747 x 792 km, 98.8° (Epoch: 09 December)

Event Time Altitude Azimuth Distance (km) Brightness Sun altitude
Rises 16:36:55 0° 184° (S) 3,177 5.9 -16.8°
Reaches altitude 10° 16:39:18 10° 191° (S) 2,256 5.2 -17.3°
Maximum altitude 16:43:58 41° 261° (W) 1,081 3.8 -18.1°
Drops below altitude 10° 16:48:40 10° 331° (NNW) 2,276 5.2 -19.0°
Sets 16:51:07 0° 339° (NNW) 3,208 5.9 -19.5°
